Location: Unspecified
(38.4417°N, 0.0000°E)
Time: 04:07:18
(UTC+00:00)

Altair 2 - Visible Passes

Search period start: 04 April 2026 00:00
Search period end: 14 April 2026 00:00
Orbit: 1354 x 1418 km, 101.9° (Epoch: 29 March)

Date Brightness Start Highest point End Pass type
(mag) Time Alt. Az. Time Alt. Az. Time Alt. Az.
4 Apr ? 01:39:17 10° NNW 01:43:37 18° NW 01:43:37 18° NW visible
4 Apr ? 22:30:23 10° NE 22:32:33 18° NE 22:32:33 18° NE visible
5 Apr ? 00:21:19 10° N 00:26:06 37° NNW 00:26:06 37° NNW visible
5 Apr ? 23:05:01 10° NNE 23:08:35 29° NE 23:08:35 29° NE visible
6 Apr ? 00:57:05 10° N 01:02:07 29° NW 01:02:07 29° NW visible
6 Apr ? 23:40:06 10° NNE 23:44:36 39° NNE 23:44:36 39° NNE visible
7 Apr ? 01:33:17 10° NNW 01:38:08 19° NW 01:38:08 19° NW visible
7 Apr ? 22:24:48 10° NE 22:27:04 18° NE 22:27:04 18° NE visible
8 Apr ? 00:15:31 10° N 00:20:37 41° NNW 00:20:37 41° NNW visible
8 Apr ? 02:10:53 10° NNW 02:12:52 11° NW 02:14:09 11° NW visible
8 Apr ? 22:59:20 10° NNE 23:03:05 29° NE 23:03:05 29° NE visible
9 Apr ? 00:51:13 10° N 00:56:38 32° NW 00:56:38 32° NW visible
9 Apr ? 23:34:21 10° NNE 23:39:06 41° NNE 23:39:06 41° NNE visible
10 Apr ? 01:27:19 10° N 01:32:39 21° NW 01:32:39 21° NW visible
10 Apr ? 22:19:15 10° NE 22:21:35 18° NE 22:21:35 18° NE visible
11 Apr ? 00:09:42 10° N 00:15:07 45° NNW 00:15:07 45° NNW visible
11 Apr ? 02:04:25 10° NNW 02:07:16 12° NW 02:08:40 12° WNW visible
11 Apr ? 22:53:40 10° NNE 22:57:36 29° NE 22:57:36 29° NE visible
12 Apr ? 00:45:21 10° N 00:51:08 36° NW 00:51:08 36° NW visible
12 Apr ? 23:28:37 10° NNE 23:33:37 44° NNE 23:33:37 44° NNE visible
13 Apr ? 01:21:22 10° N 01:27:09 23° NW 01:27:09 23° NW visible
13 Apr ? 22:13:45 10° NE 22:16:06 17° ENE 22:16:06 17° ENE visible
